"TOA5","AWS1","CR1000","7964","CR1000.Std.14","CPU:AWS1_114.CR1","64363","TBL110"
"TIMESTAMP","RECORD","Wind_spd_WVc(1)","Wind_spd_WVc(2)","Air_Temp_Avg","Humidity_Avg","SW_upper_Wm2_Avg","Rain_Tot","Press_Avg","Issui_Tot","Depth_cm","SR50A_Raw","Quality","Ground_Temp_Avg(1)","Ground_Temp_Avg(2)","SW_lower_Wm2_Avg","Albedo_Avg","SWC_per(1)","SWC_per(2)","Period(1)","Period(2)"
"TS","RN","","","","","","","","","","","","","","","","","","",""
"","","WVc","WVc","Avg","Avg","Avg","Tot","Avg","Tot","Smp","Smp","Smp","Avg","Avg","Avg","Avg","Smp","Smp","Smp","Smp"
"2018-05-25 00:00:00",342061,0.402,188.5,9.65,45.24,0,0,862.0056,0,4.723,3.079,288,14.99,13.97,0.06444422,0,51.16,59.26,33.58,35.51
"2018-05-25 00:10:00",342062,0.237,147.9,10.52,39.75,0,0,861.936,0,2.996,3.087,285,14.93,13.97,1.13346,0,51.16,59.26,33.58,35.51
"2018-05-25 00:20:00",342063,0.229,128.1,11.14,38.43,0,0,861.936,0,3.195,3.09,251,14.9,13.97,1.004572,0,51.1,59.26,33.57,35.51
"2018-05-25 00:30:00",342064,0.145,171.9,10.4,42.35,0,0,861.936,0,1.972,3.102,230,14.83,13.97,0.1402609,0,51.16,59.26,33.58,35.51
"2018-05-25 00:40:00",342065,0.287,177.7,10.35,42.99,0,0,861.936,0,1.628,3.108,222,14.82,13.97,0.1175159,0,51.16,59.2,33.58,35.5
"2018-05-25 00:50:00",342066,0.052,148.6,10.05,43.74,0,0,861.936,0,2.626,3.097,244,14.75,13.97,0.02274502,0,51.16,59.2,33.58,35.5
"2018-05-25 01:00:00",342067,0.407,184.1,9.81,44.6,0,0,861.8496,0,3.053,3.094,244,14.74,13.98,0.01137251,0,51.16,59.2,33.58,35.5
"2018-05-25 01:10:00",342068,0.094,150.2,10.31,41.17,0,0,861.6832,0,3.915,3.086,445,14.65,13.99,0.3904561,0,51.16,59.2,33.58,35.5
"2018-05-25 01:20:00",342069,0.502,175.5,9.53,46.52,0,0,861.6974,0,2.737,3.099,315,14.65,14.01,0,0,51.16,59.2,33.58,35.5
"2018-05-25 01:30:00",342070,0.499,189.9,9.75,44.56,0,0,861.8231,0,2.598,3.098,307,14.57,14.02,0.2881036,0,51.16,59.2,33.58,35.5
"2018-05-25 01:40:00",342071,0.432,190.9,9.85,44.64,0,0,861.9057,0,0.063,3.126,215,14.56,14.02,0.185751,0,51.16,59.2,33.58,35.5
"2018-05-25 01:50:00",342072,0.512,187.3,9.53,45.93,0,0,861.9358,0,0.15,3.123,204,14.52,14.01,0.08718923,0,51.16,59.2,33.58,35.5
"2018-05-25 02:00:00",342073,0.206,187,9.79,44.46,0,0,862.0308,0,-0.982,3.137,209,14.47,13.98,0.2047052,0,51.16,59.2,33.58,35.5
"2018-05-25 02:10:00",342074,0.113,136.5,9.04,48.94,0,0,862.0751,0,-1.925,3.147,207,14.45,13.93,0,0,51.16,59.2,33.58,35.5
"2018-05-25 02:20:00",342075,0.451,177.4,8.62,52.32,0,0,862.0266,0,-1.448,3.144,207,14.39,13.93,0,0,51.16,59.2,33.58,35.5
"2018-05-25 02:30:00",342076,0.391,180.8,8.96,48.21,0,0,861.9886,0,-0.445,3.131,212,14.37,13.93,0.3639203,0,51.16,59.14,33.58,35.48
"2018-05-25 02:40:00",342077,0.208,173.4,9.64,43.71,0,0,861.936,0,0.74,3.116,219,14.28,13.89,0.7505856,0,51.16,59.14,33.58,35.48
"2018-05-25 02:50:00",342078,0.339,177.6,9.61,45.1,0,0,861.936,0,-0.656,3.135,214,14.32,13.89,0.4776454,0,51.16,59.14,33.58,35.48
"2018-05-25 03:00:00",342079,0.507,178.9,9.2,47.95,0,0,861.936,0,-0.014,3.127,213,14.21,13.89,0.1895418,0,51.16,59.14,33.58,35.48
"2018-05-25 03:10:00",342080,0.24,175.8,9.73,44.98,0,0,861.936,0,-0.163,3.122,208,14.23,13.9,0.7316314,0,51.21,59.14,33.6,35.48
"2018-05-25 03:20:00",342081,0.1,172.9,10.27,43.01,0,0,861.936,0,0.207,3.121,217,14.18,13.92,0.7050955,0,51.16,59.14,33.58,35.48
"2018-05-25 03:30:00",342082,0.284,173,9.71,45.67,0,0,861.9339,0,0.368,3.123,218,14.12,13.93,0,0,51.16,59.14,33.58,35.48
"2018-05-25 03:40:00",342083,0.431,174,8.92,52.25,0,0,861.9297,0,0.938,3.121,231,14.13,13.93,0,0,51.16,59.14,33.58,35.48
"2018-05-25 03:50:00",342084,0.349,185.1,9.06,50.55,0,0,861.936,0,0.056,3.128,238,14.06,13.87,0.1175159,0,51.16,59.14,33.58,35.48
"2018-05-25 04:00:00",342085,0.516,184.4,8.68,53.94,0,0,862.0793,0,0.734,3.123,231,14.07,13.81,0,0,51.16,59.08,33.58,35.47
"2018-05-25 04:10:00",342086,0.665,184,8.6,54.85,0,0,862.1888,0,1.287,3.119,235,13.94,13.77,0,0,51.16,59.14,33.58,35.48
"2018-05-25 04:20:00",342087,0.604,189.5,8.55,54.86,0,0,862.1888,0,0.783,3.123,210,13.96,13.79,0,0,51.16,59.14,33.58,35.48
"2018-05-25 04:30:00",342088,0.393,181.7,8.91,51.83,0,0,862.1973,0,1.434,3.113,228,13.95,13.81,0.5307171,0,51.16,59.08,33.58,35.47
"2018-05-25 04:40:00",342089,0.203,180.9,9.5,48.23,0.621197,0,862.2078,0,1.211,3.114,224,13.91,13.84,1.235813,0.907,51.16,59.08,33.58,35.47
"2018-05-25 04:50:00",342090,0.162,180.4,9.58,48.44,4.702226,0,862.3679,0,3.048,3.095,230,13.87,13.85,1.785484,0.416,51.16,59.08,33.58,35.47
"2018-05-25 05:00:00",342091,0.106,179.4,10,46.04,12.54189,0,862.4417,0,1.647,3.109,239,13.81,13.85,3.362472,0.274,51.16,59.08,33.58,35.47
"2018-05-25 05:10:00",342092,0.401,179.5,9.02,52.97,20.12207,0,862.4459,0,1.063,3.12,239,13.78,13.84,3.411753,0.171,51.16,59.08,33.58,35.47
"2018-05-25 05:20:00",342093,0.548,182.4,8.71,55.91,30.19883,0,862.4417,0,1.319,3.117,243,13.79,13.79,5.091093,0.169,51.21,59.08,33.6,35.47
"2018-05-25 05:30:00",342094,0.337,184.2,9.34,51.21,41.06977,0,862.4417,0,2.102,3.105,240,13.68,13.7,7.244288,0.176,51.16,59.08,33.58,35.47
"2018-05-25 05:40:00",342095,0.037,157.3,10.71,44.91,54.00875,0,862.4417,0,-0.197,3.119,241,13.69,13.68,10.36415,0.191,51.16,59.03,33.58,35.45
"2018-05-25 05:50:00",342096,0.225,164.5,9.95,53.69,74.70484,0,862.4417,0,1.11,3.115,241,13.71,13.68,12.75616,0.172,51.16,59.03,33.58,35.45
"2018-05-25 06:00:00",342097,0.365,177.9,9.69,56.36,97.49648,0,862.4417,0,0.799,3.114,233,13.6,13.68,16.3423,0.171,51.16,59.08,33.58,35.47
"2018-05-25 06:10:00",342098,0.243,114.8,11.25,47,105.8197,0,862.4398,0,1.951,3.093,221,13.59,13.68,21.37274,0.209,51.21,59.03,33.6,35.45
"2018-05-25 06:20:00",342099,0.218,119.9,12.01,45.61,113.2544,0,862.4212,0,-0.225,3.115,205,13.59,13.68,25.21664,0.23,51.21,59.03,33.6,35.45
"2018-05-25 06:30:00",342100,0.172,164.3,12.24,49.61,93.08127,0,862.4144,0,-0.004,3.11,224,13.59,13.67,27.60487,0.297,51.21,59.03,33.6,35.45
"2018-05-25 06:40:00",342101,0.16,17.4,12.96,39.97,127.3611,0,862.5068,0,-0.234,3.108,215,13.58,13.66,30.06512,0.243,51.21,59.03,33.6,35.45
"2018-05-25 06:50:00",342102,0.3,120.2,12.91,46.49,138.8179,0,862.4425,0,-0.065,3.108,229,13.52,13.66,30.47453,0.23,51.21,59.03,33.6,35.45
"2018-05-25 07:00:00",342103,0.455,127.5,13.16,45.72,156.571,0,862.5192,0,-0.065,3.105,217,13.52,13.64,34.72739,0.254,51.21,59.03,33.6,35.45
"2018-05-25 07:10:00",342104,0.635,125.1,14.1,37.85,106.7083,0,862.6047,0,-1.245,3.112,250,13.48,13.6,34.35637,0.322,51.21,58.97,33.6,35.44
"2018-05-25 07:20:00",342105,0.443,134.9,14.52,35.56,127.0635,0,862.6045,0,-0.158,3.099,322,13.46,13.57,35.18959,0.282,51.21,59.03,33.6,35.45
"2018-05-25 07:30:00",342106,0.387,140.9,15.09,31.68,123.4667,0,862.7625,0,-1.232,3.106,249,13.45,13.55,38.25688,0.311,51.21,59.03,33.6,35.45
"2018-05-25 07:40:00",342107,0.761,137.5,15.58,27.52,137.9783,0,862.8572,0,-0.86,3.101,201,13.39,13.54,43.37943,0.316,51.21,58.97,33.6,35.44
"2018-05-25 07:50:00",342108,0.723,142.1,15.85,27.99,402.2188,0,862.8572,0,0.747,3.084,245,13.34,13.54,50.13204,0.14,51.21,58.97,33.6,35.44
"2018-05-25 08:00:00",342109,0.793,132.7,15.88,28.56,538.0016,0,862.8572,0,-1.328,3.103,188,13.28,13.54,71.38747,0.132,51.21,59.03,33.6,35.45
"2018-05-25 08:10:00",342110,0.502,140.9,16.14,30.84,476.1935,0,862.8572,0,-2.436,3.114,188,13.31,13.54,70.45521,0.148,51.21,58.97,33.6,35.44
"2018-05-25 08:20:00",342111,0.235,134.4,16.82,31.64,681.5746,0,862.8572,0,-1.974,3.103,189,13.36,13.5,109.2753,0.16,51.21,58.97,33.6,35.44
"2018-05-25 08:30:00",342112,0.545,77.67,17.02,30.32,713.0523,0,862.8755,0,2.292,3.063,308,13.33,13.45,115.0581,0.161,51.21,59.03,33.6,35.45
"2018-05-25 08:40:00",342113,0.503,107.1,17.04,31.62,702.6285,0,863.0441,0,-2.26,3.107,192,13.32,13.41,112.4679,0.16,51.16,58.97,33.58,35.44
"2018-05-25 08:50:00",342114,0.452,23.23,17.12,32.22,693.0869,0,862.8893,0,-2.769,3.112,198,13.25,13.43,108.5934,0.157,51.21,58.97,33.6,35.44
"2018-05-25 09:00:00",342115,0.441,355.6,17.02,32.15,746.7818,0,862.8816,0,-1.274,3.098,216,13.24,13.42,116.9557,0.157,51.21,58.97,33.6,35.44
"2018-05-25 09:10:00",342116,0.472,343.9,17.05,33.94,819.8051,0,862.8152,0,-1.082,3.095,211,13.23,13.37,128.491,0.157,51.21,58.91,33.6,35.43
"2018-05-25 09:20:00",342117,0.214,270.6,17.71,35.13,870.4,0,862.7796,0,-0.954,3.091,217,13.29,13.27,136.2161,0.156,51.16,58.97,33.58,35.44
"2018-05-25 09:30:00",342118,0.554,8.91,17.94,33.25,926.9127,0,862.7761,0,-0.66,3.087,214,13.29,13.24,146.5846,0.158,51.21,58.91,33.6,35.43
"2018-05-25 09:40:00",342119,0.516,312.9,17.86,33.42,954.8762,0,862.7275,0,-0.089,3.081,211,13.27,13.25,151.3593,0.159,51.16,58.97,33.58,35.44
"2018-05-25 09:50:00",342120,0.585,41.65,17.96,31.64,886.2394,0,862.5367,0,0.542,3.074,229,13.25,13.28,139.7151,0.157,51.16,58.97,33.58,35.44
"2018-05-25 10:00:00",342121,0.32,67.35,18.11,33.39,673.0164,0,862.5252,0,-0.808,3.088,221,13.24,13.3,103.4228,0.15,51.16,58.97,33.58,35.44
"2018-05-25 10:10:00",342122,0.173,278.8,17.84,34.58,634.9414,0,862.5748,0,0.298,3.075,254,13.24,13.27,99.49674,0.152,51.16,58.97,33.58,35.44
"2018-05-25 10:20:00",342123,0.26,45.36,18.64,36.2,945.0499,0,862.6708,0,-1.425,3.088,224,13.23,13.26,155.7845,0.164,51.16,58.91,33.58,35.43
"2018-05-25 10:30:00",342124,0.48,50.27,18.5,34.25,894.8944,0,862.5209,0,1.071,3.07,264,13.33,13.25,146.6548,0.163,51.1,58.91,33.57,35.43
"2018-05-25 10:40:00",342125,0.442,53.86,18.8,34.58,1023.585,0,862.5128,0,-0.611,3.081,205,13.31,13.23,171.877,0.167,51.16,58.97,33.58,35.44
"2018-05-25 10:50:00",342126,0.627,153.2,18.49,33.66,805.4104,0,862.3812,0,-0.555,3.085,202,13.4,13.23,138.4128,0.17,51.16,58.91,33.58,35.43
"2018-05-25 11:00:00",342127,0.907,117.2,18.3,33.54,938.2289,0,862.3246,0,-1.211,3.087,202,13.43,13.23,168.1538,0.178,51.1,58.91,33.57,35.43
"2018-05-25 11:10:00",342128,0.525,120.9,19.38,33.45,965.4182,0,862.2894,0,-1.341,3.083,211,13.51,13.22,170.5173,0.176,51.1,58.91,33.57,35.43
"2018-05-25 11:20:00",342129,0.478,35.67,19.45,32.28,807.577,0,862.2584,0,-0.452,3.078,221,13.57,13.2,136.9063,0.169,51.1,58.91,33.57,35.43
"2018-05-25 11:30:00",342130,0.418,340.3,19.39,31.68,830.4252,0,862.1399,0,-0.695,3.079,221,13.6,13.17,139.1445,0.167,51.1,58.91,33.57,35.43
"2018-05-25 11:40:00",342131,0.351,61.86,19.37,32.37,735.3925,0,862.0598,0,2.195,3.052,273,13.69,13.18,121.526,0.164,51.05,58.91,33.56,35.43
"2018-05-25 11:50:00",342132,0.336,133.9,19.61,34.34,837.748,0,862.0119,0,-1.563,3.086,218,13.77,13.19,142.7614,0.17,51.1,58.91,33.57,35.43
"2018-05-25 12:00:00",342133,0.496,116.3,19.7,33.38,819.1664,0,862.0051,0,-0.615,3.078,197,13.87,13.18,137.4602,0.166,51.1,58.85,33.57,35.41
"2018-05-25 12:10:00",342134,0.393,62.4,19.55,33.52,748.329,0,861.8658,0,0.614,3.065,217,13.92,13.19,126.0615,0.167,51.1,58.85,33.57,35.41
"2018-05-25 12:20:00",342135,0.387,36.24,19.7,34.04,761.1888,0,861.9456,0,-2.01,3.088,200,14,13.15,127.0179,0.166,51.05,58.85,33.56,35.41
"2018-05-25 12:30:00",342136,0.328,287.8,20.17,35.73,904.3381,0,861.8139,0,-1.12,3.076,199,14.11,13.15,153.94,0.17,51.05,58.85,33.56,35.41
"2018-05-25 12:40:00",342137,0.486,343.3,20.24,34.32,778.8475,0,861.7813,0,-1,3.081,216,14.18,13.15,128.7202,0.164,51.05,58.85,33.56,35.41
"2018-05-25 12:50:00",342138,0.453,3.573,20.18,37.18,957.9743,0,861.7711,0,-0.644,3.073,235,14.25,13.13,164.0187,0.17,50.99,58.85,33.54,35.41
"2018-05-25 13:00:00",342139,0.461,316,20.4,34.74,790.1707,0,861.5905,0,-0.59,3.075,254,14.34,13.12,132.514,0.166,50.99,58.85,33.54,35.41
"2018-05-25 13:10:00",342140,0.239,63.23,20.31,34.86,727.0345,0,861.5231,0,-2.774,3.094,204,14.43,13.13,118.6376,0.162,50.99,58.85,33.54,35.41
"2018-05-25 13:20:00",342141,0.316,310.4,20.15,36.12,911.7978,0,861.3514,0,-0.932,3.076,230,14.51,13.11,156.038,0.17,50.94,58.79,33.53,35.4
"2018-05-25 13:30:00",342142,0.429,122.1,20.7,35.29,893.5915,0,861.4197,0,0.872,3.057,261,14.59,13.11,150.6784,0.168,50.94,58.85,33.53,35.41
"2018-05-25 13:40:00",342143,0.506,29.92,20.41,33.01,845.917,0,861.2823,0,0.188,3.065,247,14.66,13.11,142.1045,0.168,50.94,58.79,33.53,35.4
"2018-05-25 13:50:00",342144,0.341,188.9,20.81,35.2,937.1964,0,861.2666,0,-0.414,3.069,216,14.73,13.11,158.7717,0.169,50.94,58.79,33.53,35.4
"2018-05-25 14:00:00",342145,0.5,327.2,20.55,32.82,892.6426,0,861.2668,0,-3.376,3.098,204,14.82,13.14,148.9708,0.167,50.94,58.79,33.53,35.4
"2018-05-25 14:10:00",342146,0.432,153,20.97,32.77,893.4684,0,861.2655,0,1.678,3.047,230,14.89,13.15,145.9459,0.163,50.94,58.79,33.53,35.4
"2018-05-25 14:20:00",342147,0.469,135.8,20.93,32.37,872.287,0,861.2813,0,2.336,3.042,324,14.97,13.13,137.6577,0.158,50.88,58.79,33.52,35.4
"2018-05-25 14:30:00",342148,0.339,192.4,21.15,32.25,835.8718,0,861.2568,0,-0.096,3.065,230,15.07,13.14,125.985,0.151,50.88,58.73,33.52,35.39
"2018-05-25 14:40:00",342149,0.451,125.4,21.08,32.64,807.7169,0,861.0836,0,-2.554,3.088,195,15.15,13.17,108.3601,0.134,50.83,58.73,33.5,35.39
"2018-05-25 14:50:00",342150,0.581,167.8,20.85,32.81,772.6104,0,861.0644,0,1.104,3.055,230,15.22,13.2,86.10305,0.111,50.83,58.73,33.5,35.39
"2018-05-25 15:00:00",342151,0.591,119.2,20.64,32.3,736.3517,0,861.0399,0,2.196,3.047,213,15.26,13.19,59.46441,0.081,50.83,58.73,33.5,35.39
"2018-05-25 15:10:00",342152,0.317,98.4,20.59,31.53,377.8451,0,861.162,0,-1.305,3.078,244,15.37,13.2,37.05447,0.108,50.77,58.73,33.49,35.39
"2018-05-25 15:20:00",342153,0.391,278.9,20.51,33.62,203.521,0,861.2496,0,-1.391,3.082,200,15.45,13.17,28.16969,0.144,50.83,58.73,33.5,35.39
"2018-05-25 15:30:00",342154,0.338,147.8,19.96,33.07,113.1876,0,861.2756,0,-2.487,3.093,200,15.54,13.17,22.43319,0.201,50.72,58.67,33.47,35.37
"2018-05-25 15:40:00",342155,0.43,274.6,20.06,34.29,95.35101,0,861.3571,0,-0.601,3.075,218,15.62,13.22,20.08802,0.211,50.77,58.73,33.49,35.39
"2018-05-25 15:50:00",342156,0.433,320.7,20.06,32.23,96.94382,0,861.574,0,0.688,3.063,280,15.65,13.28,18.8036,0.194,50.72,58.67,33.47,35.37
"2018-05-25 16:00:00",342157,0.343,326.5,20.08,34.7,99.52641,0,861.5895,0,0.066,3.069,203,15.77,13.26,18.78094,0.189,50.72,58.67,33.47,35.37
"2018-05-25 16:10:00",342158,0.204,188.1,19.79,36.16,82.18221,0,861.5967,0,0.645,3.065,366,15.84,13.23,14.33962,0.174,50.72,58.73,33.47,35.39
"2018-05-25 16:20:00",342159,0.472,8.86,19.74,34.69,81.29005,0,861.6985,0,-1.473,3.085,219,15.88,13.2,13.10423,0.16,50.72,58.67,33.47,35.37
"2018-05-25 16:30:00",342160,0.362,102.3,19.69,33.17,94.70804,0,861.6565,0,-1.386,3.086,202,15.96,13.24,15.91986,0.17,50.66,58.67,33.46,35.37
"2018-05-25 16:40:00",342161,0.228,193.8,19.49,34.87,79.16377,0,861.7851,0,0.142,3.071,250,16.01,13.28,11.70589,0.147,50.66,58.67,33.46,35.37
"2018-05-25 16:50:00",342162,0.226,166.4,19.48,36.67,67.39257,0,861.8293,0,0.486,3.067,282,16.06,13.33,10.14081,0.15,50.61,58.67,33.45,35.37
"2018-05-25 17:00:00",342163,0.175,212.2,19.41,39.72,59.78747,0,861.8461,0,2.711,3.048,390,16.08,13.37,8.746261,0.146,50.61,58.61,33.45,35.36
"2018-05-25 17:10:00",342164,0.105,302.7,19.11,39.9,53.09027,0,861.882,0,3.619,3.039,396,16.06,13.4,7.177391,0.135,50.61,58.61,33.45,35.36
"2018-05-25 17:20:00",342165,0.148,112.1,18.91,41.98,48.76302,0,862.0652,0,0.291,3.073,282,16.06,13.45,6.279269,0.129,50.61,58.67,33.45,35.37
"2018-05-25 17:30:00",342166,0.155,296.7,18.67,42.13,44.95851,0,862.1683,0,-3.138,3.108,197,16.06,13.43,5.665364,0.126,50.61,58.67,33.45,35.37
"2018-05-25 17:40:00",342167,0.069,202.5,18.46,40.44,41.154,0,862.3074,0,-0.22,3.08,236,16.06,13.41,5.210618,0.127,50.61,58.61,33.45,35.36
"2018-05-25 17:50:00",342168,0.092,217,18.33,40.87,37.11366,0,862.3516,0,1.837,3.061,229,16.06,13.38,4.854402,0.131,50.55,58.61,33.43,35.36
"2018-05-25 18:00:00",342169,0.113,187.1,18.06,38.84,29.94876,0,862.5791,0,1.923,3.062,257,16.08,13.45,3.793331,0.126,50.55,58.61,33.43,35.36
"2018-05-25 18:10:00",342170,0.093,215.1,17.79,39.56,24.89835,0,862.6044,0,3.19,3.052,437,16.12,13.46,3.198373,0.128,50.5,58.61,33.42,35.36
"2018-05-25 18:20:00",342171,0.051,177.1,17.22,39.66,21.88382,0,862.6149,0,3.782,3.049,259,16.15,13.52,2.762575,0.126,50.55,58.56,33.43,35.35
"2018-05-25 18:30:00",342172,0.029,151.5,16.8,38.38,13.61843,0,862.834,0,3.605,3.053,240,16.15,13.54,1.409709,0.098,50.5,58.56,33.42,35.35
"2018-05-25 18:40:00",342173,0.271,168.8,16.08,39.92,4.967878,0,862.8529,0,3.357,3.06,235,16.14,13.54,0.03789541,0.006,50.5,58.56,33.42,35.35
"2018-05-25 18:50:00",342174,0.391,192.1,15.55,39.73,2.857316,0,862.9014,0,2.527,3.069,240,16.09,13.56,0.1212653,0.056,50.55,58.56,33.43,35.35
"2018-05-25 19:00:00",342175,0.353,182.5,15.25,39.54,0.09039652,0,863.1014,0,2.56,3.071,254,16.06,13.63,0.01515816,0.02,50.5,58.56,33.42,35.35
"2018-05-25 19:10:00",342176,0.476,180,14.73,39.83,0,0,863.2847,0,1.494,3.083,250,16.06,13.64,0,0,50.5,58.5,33.42,35.33
"2018-05-25 19:20:00",342177,0.171,177.2,14.63,36.63,0,0,863.4995,0,2.891,3.071,403,15.97,13.7,0,0,50.5,58.5,33.42,35.33
"2018-05-25 19:30:00",342178,0.274,184.1,14.25,38.62,0,0,863.5332,0,1.031,3.091,249,15.99,13.69,0,0,50.5,58.5,33.42,35.33
"2018-05-25 19:40:00",342179,0.315,183.1,13.98,40.72,0,0,863.4679,0,-0.815,3.109,256,15.98,13.67,0,0,50.5,58.5,33.42,35.33
"2018-05-25 19:50:00",342180,0.036,176.2,14.09,40.2,0,0,863.4911,0,-3.12,3.131,197,15.89,13.67,0.06821174,0,50.5,58.5,33.42,35.33
"2018-05-25 20:00:00",342181,0.108,170,13.97,41.27,0,0,863.3984,0,-3.958,3.142,186,15.89,13.72,0.0833702,0,50.5,58.44,33.42,35.32
"2018-05-25 20:10:00",342182,0.096,174.1,13.74,42.96,0,0,863.5332,0,-4.886,3.152,187,15.85,13.77,0.05305412,0,50.44,58.44,33.41,35.32
"2018-05-25 20:20:00",342183,0.522,177.6,13.07,47.9,0,0,863.6153,0,1.817,3.09,401,15.84,13.79,0,0,50.44,58.44,33.41,35.32
"2018-05-25 20:30:00",342184,0.509,184.5,12.77,49.28,0,0,863.6153,0,1.525,3.094,458,15.77,13.82,0,0,50.44,58.44,33.41,35.32
"2018-05-25 20:40:00",342185,0.462,193.2,12.74,48.12,0,0,863.6153,0,0.191,3.107,254,15.77,13.81,0.007579838,0,50.44,58.44,33.41,35.32
"2018-05-25 20:50:00",342186,0.479,189.4,12.54,48.65,0,0,863.6006,0,0.079,3.108,223,15.74,13.83,0.04548256,0,50.44,58.38,33.41,35.31
"2018-05-25 21:00:00",342187,0.502,188.3,12.62,48.56,0,0,863.6195,0,-0.141,3.111,225,15.71,13.9,0,0,50.44,58.38,33.41,35.31
"2018-05-25 21:10:00",342188,0.489,184.2,12.38,49.65,0,0,863.8618,0,-0.56,3.116,219,15.7,13.92,0,0,50.44,58.38,33.41,35.31
"2018-05-25 21:20:00",342189,0.473,180.9,12.28,49.96,0,0,863.8618,0,-0.522,3.117,240,15.65,13.92,0,0,50.44,58.38,33.41,35.31
"2018-05-25 21:30:00",342190,0.549,181.3,12.16,50.1,0,0,863.8597,0,-0.879,3.12,212,15.64,13.93,0.02653546,0,50.44,58.44,33.41,35.32
"2018-05-25 21:40:00",342191,0.633,181.5,12.06,50.36,0,0,863.8513,0,-0.579,3.118,266,15.61,13.92,0,0,50.5,58.38,33.42,35.31
"2018-05-25 21:50:00",342192,0.688,182.6,12,50.41,0,0,863.8323,0,-0.579,3.118,220,15.58,13.89,0,0,50.44,58.38,33.41,35.31
"2018-05-25 22:00:00",342193,0.628,188.6,11.99,50.5,0,0,863.6827,0,0.237,3.11,224,15.5,13.9,0.03790836,0,50.44,58.32,33.41,35.29
"2018-05-25 22:10:00",342194,0.57,187.9,11.99,50.63,0,0,863.8218,0,0.01,3.112,212,15.48,13.94,0,0,50.5,58.32,33.42,35.29
"2018-05-25 22:20:00",342195,0.648,187.5,11.82,50.79,0,0,863.6575,0,-0.531,3.118,206,15.45,13.98,0.003790837,0,50.44,58.38,33.41,35.31
"2018-05-25 22:30:00",342196,0.531,189.3,12.01,48.73,0,0,863.6153,0,-0.327,3.116,205,15.42,14.01,0.2009143,0,50.44,58.32,33.41,35.29
"2018-05-25 22:40:00",342197,0.556,186.6,11.96,46.61,0,0,863.6216,0,0.058,3.112,205,15.36,14.03,0,0,50.44,58.38,33.41,35.31
"2018-05-25 22:50:00",342198,0.251,185.3,11.97,47.13,0,0,863.6153,0,0.365,3.109,227,15.3,14.02,0,0,50.44,58.32,33.41,35.29
"2018-05-25 23:00:00",342199,0.298,30.2,13.73,38.63,0.263419,0,863.6153,0,0.809,3.088,222,15.32,14.02,2.263129,3.944,50.44,58.32,33.41,35.29
"2018-05-25 23:10:00",342200,0.245,86.5,15.22,33.24,0.07470091,0,863.6153,0,-0.502,3.101,205,15.26,14,2.44888,1.299,50.44,58.32,33.41,35.29
"2018-05-25 23:20:00",342201,0.128,160.7,15.3,30.47,0,0,863.5395,0,-0.253,3.096,202,15.26,13.98,1.421564,0,50.44,58.32,33.41,35.29
"2018-05-25 23:30:00",342202,0.408,176.3,15.42,28.8,0,0,863.5269,0,0.231,3.092,230,15.17,14.01,0.8718923,0,50.44,58.32,33.41,35.29
"2018-05-25 23:40:00",342203,0.488,149.7,15.25,27.39,0,0,863.4111,0,-0.367,3.099,211,15.16,14.06,0.231241,0,50.44,58.26,33.41,35.28
"2018-05-25 23:50:00",342204,0.408,182.4,14.73,27.72,0,0,863.3626,0,0.863,3.089,234,15.1,14.05,0,0,50.44,58.32,33.41,35.29
